CELESTIS-02 1 25160U 98007D 10252.84862337 -.00000068 00000-0 27910-4 0 4307 2 25160 107.9758 267.2898 0065410 277.8586 81.5130 14.20877645652313 CELESTIS-03 1 26034U 99070C 10252.08891323 .00000865 00000-0 12063-3 0 9381 2 26034 98.3431 287.0314 0018608 355.7660 4.3394 14.80383675576720 AMC-14 1 32708U 08011A 10248.63526931 .00000149 00000-0 10000-3 0 6502 2 32708 14.1732 108.0350 0051490 3.2327 136.5613 1.00275067 10377